Other Public Products
Issued by NWS Grand Forks, ND

Home | Current Version | Previous Version | Text Only | Print | Product List | Glossary On
Versions: 1 2 3 4 5 6 7 8 9 10 11 12 13 14 15 16 17 18 19 20 21 22 23 24 25 26 27 28 29 30 31 32 33 34 35 36 37 38 39 40 41 42 43 44 45 46 47 48 49 50
000
FPUS83 KFGF 181831
OPUFGF
PRAIRIE TO PINES WEATHER ROUNDUP
NATIONAL WEATHER SERVICE EASTERN NORTH DAKOTA/GRAND FORKS ND
1200 PM CST MON DEC 18 2017

 **SATELLITE DATA USED TO AUGMENT SKY COVER AT AUTOMATED STATIONS**
 *****  WEATHER ACROSS EASTERN NORTH DAKOTA  *****

CITY           SKY/WX    TMP DP  RH WIND       PRES   REMARKS
GRAND FORKS    CLOUDY    33  29  85 S10       29.52F WCI  25
6HR MIN TEMP:  28; 6HR MAX TEMP:  33;

GRND FORKS AFB CLOUDY    36  28  71 SW6       29.52S
GRND FORKS NWS   N/A     32 N/A N/A SW5         N/A
BUXTON           N/A     35  33  94 SW10        N/A
DEVILS LAKE    CLOUDY    36  27  69 W15       29.52F
6HR MIN TEMP:  30; 6HR MAX TEMP:  36;

FARGO          CLOUDY    35  29  78 S13       29.58F
6HR MIN TEMP:  26; 6HR MAX TEMP:  35;

WAHPETON ARPT  FAIR      34  30  86 SW6       29.62F
$$

 *****  WEATHER ACROSS CENTRAL AND WESTERN NORTH DAKOTA  *****

CITY           SKY/WX    TMP DP  RH WIND       PRES   REMARKS
JAMESTOWN      PTSUNNY   38  33  82 W18G26    29.55F
6HR MIN TEMP:  32; 6HR MAX TEMP:  39;

BISMARCK       PTSUNNY   42  29  59 W13       29.61F
6HR MIN TEMP:  31; 6HR MAX TEMP:  42; 6HR PCP: TRACE;

MINOT          FLURRIES  35  32  88 W5        29.54F
6HR MIN TEMP:  34; 6HR MAX TEMP:  39; 6HR PCP:  0.01;

MINOT AFB      LGT SNOW  34  32  93 NW7       29.53F FOG
GARRISON         N/A     39  31  72 W15       29.55F
6HR MIN TEMP:  34; 6HR MAX TEMP:  40;

WILLISTON      LGT RAIN  36  34  92 SW10      29.58S
6HR MIN TEMP:  33; 6HR MAX TEMP:  37; 6HR PCP:  0.08;

DICKINSON      FAIR      39  28  64 W20       29.58F
6HR MIN TEMP:  31; 6HR MAX TEMP:  39; 6HR PCP: TRACE;

HETTINGER      PTSUNNY   46  23  40 W22       29.64F
6HR MIN TEMP:  23; 6HR MAX TEMP:  46;

$$

 *****  OTHER OBSERVATIONS NORTHEAST NORTH DAKOTA  *****

CITY           SKY/WX    TMP DP  RH WIND       PRES   REMARKS
WALHALLA       FAIR      36  30  80 W12       29.47S
LANGDON        NOT AVBL
CAVALIER       FAIR      36  28  75 NW3       29.48S
GRAFTON        NOT AVBL
CANDO          CLOUDY    36  32  87 W13       29.52S
FORT TOTTEN      N/A     39  27  62 W7        29.95
ROLLA          CLOUDY    36  27  69 NW10      29.49S
RUGBY          NOT AVBL
 ***** THE ABOVE OBSERVATIONS ARE NON NWS ARE NOT QUALITY
        CONTROLLED AND MAY MIS-REPORT RAIN FOR SNOW...
$$

 *****  OTHER OBSERVATIONS SOUTHEAST NORTH DAKOTA *****

CITY           SKY/WX    TMP DP  RH WIND       PRES   REMARKS
COOPERSTOWN    FAIR      36  30  80 W14       29.52F
VALLEY CITY    NOT AVBL
OAKES            N/A     34  34 100 S12       29.61F
GWINNER          N/A     36  28  75 SW12G17   29.60F
SHEYENNE NWR     N/A     35  31  85 SW9       29.95S
BUFFALO          N/A     37  27  66 S17         N/A
WYNDMERE       NOT AVBL
 ***** THE ABOVE OBSERVATIONS ARE NON NWS ARE NOT QUALITY
       CONTROLLED AND MAY MIS-REPORT RAIN FOR SNOW...
$$

  *****  WEATHER ACROSS NORTHERN MINNESOTA  *****

CITY           SKY/WX    TMP DP  RH WIND       PRES   REMARKS
FLAG ISLAND    CLOUDY    32  30  93 SW9       29.43F WCI  24
WARROAD        FAIR      34  30  86 SW8       29.45F
ROSEAU         LGT RAIN  34  28  80 S12       29.46F
HALLOCK        FAIR      34  30  86 S10       29.48F
THF RVR FALLS  FLURRIES  30  28  93 SW10      29.51F WCI  21
6HR MIN TEMP:  28; 6HR MAX TEMP:  29; 6HR PCP: TRACE;

HALSTAD        NOT AVBL
FOSSTON        LGT SNOW  28  27  93 S12       29.54F WCI  18
BAUDETTE       FRZ RAIN  32  31  96 S16G28    29.46F FOG     WCI  21
6HR MIN TEMP:  27; 6HR MAX TEMP:  32; 6HR PCP:  0.01;

WASKISH        PTSUNNY   34  28  80 SW6       29.51F
CROOKSTON      FAIR      32  28  86 SW13      29.54F WCI  22
$$
  *****  WEATHER ACROSS CENTRAL AND WEST MINNESOTA  *****

CITY           SKY/WX    TMP DP  RH WIND       PRES   REMARKS
BEMIDJI        PTSUNNY   31  27  84 SW6       29.54F
6HR MIN TEMP:  27; 6HR MAX TEMP:  31;

PARK RAPIDS    CLOUDY    31  28  89 S8        29.58F WCI  23
6HR MIN TEMP:  22; 6HR MAX TEMP:  31;

WADENA         FAIR      32  27  80 SW10      29.60F WCI  24
DETROIT LAKES  FAIR      32  28  86 S7        29.58F
MOORHEAD       DRIZZLE   34  28  80 CALM      29.59F
FERGUS FALLS   FAIR      34  28  80 SW8       29.65F
ELBOW LAKE     MOCLDY    34  30  87 W12       29.63F FOG     WCI  25
6HR MIN TEMP:  24; 6HR MAX TEMP:  33;

MORRIS MN      FAIR      37  28  70 SW9       29.64F
STAPLES        PTSUNNY   32  27  80 S7        29.61F
WHEATON        FAIR      37  27  65 SW12      29.65F
$$
  *****  WEATHER ELSEWHERE ACROSS MINNESOTA  *****

CITY           SKY/WX    TMP DP  RH WIND       PRES   REMARKS
DULUTH         CLOUDY    28  27  96 SW13      29.60F FOG     WCI  17
6HR MIN TEMP:  22; 6HR MAX TEMP:  28;

INTRNTL FALLS  HVY SNOW  33  28  81 SW8       29.50F VSB 1/4
6HR MIN TEMP:  27; 6HR MAX TEMP:  33; 6HR PCP: TRACE;

ELY            CLOUDY    28  27  93 SW9G17    29.55F WCI  20
CLOQUET        CLOUDY    30  25  80 S8        29.61F HAZE    WCI  23
BRAINERD       CLOUDY    32  27  81 SW12      29.63F WCI  23
6HR MIN TEMP:  27; 6HR MAX TEMP:  32;

HIBBING        FAIR      30  25  81 SW8       29.57F WCI  22
6HR MIN TEMP:  22; 6HR MAX TEMP:  30;

ALEXANDRIA     PTSUNNY   33  28  81 SW10      29.63F WCI  25
6HR MIN TEMP:  28; 6HR MAX TEMP:  33;

SAINT CLOUD    FAIR      33  28  81 SW12      29.68F WCI  24
6HR MIN TEMP:  21; 6HR MAX TEMP:  33;

MINNEAPOLIS    PTSUNNY   35  28  75 SW10      29.74F
6HR MIN TEMP:  24; 6HR MAX TEMP:  35;

$$

  *****  WEATHER ACROSS SOUTH DAKOTA  *****

CITY           SKY/WX    TMP DP  RH WIND       PRES   REMARKS
SIOUX FALLS    FAIR      43  30  60 SW6       29.77F
6HR MIN TEMP:  26; 6HR MAX TEMP:  43;

BROOKINGS      FAIR      40  26  57 W13       29.72F
WATERTOWN      FAIR      41  28  60 W18       29.68F
6HR MIN TEMP:  26; 6HR MAX TEMP:  41;

HURON          FAIR      44  28  53 SW8       29.73F
6HR MIN TEMP:  27; 6HR MAX TEMP:  44;

SISSETON         N/A     41  28  60 SW18G25   29.62F
ABERDEEN       CLOUDY    38  29  70 SW10      29.67F
6HR MIN TEMP:  21; 6HR MAX TEMP:  38;

MITCHELL       FAIR      46  27  47 SW10      29.77F
PIERRE         FAIR      43  25  49 W18       29.71F
6HR MIN TEMP:  27; 6HR MAX TEMP:  43;

MOBRIDGE       CLOUDY    41  28  60 SW3       29.65F
RAPID CITY     FAIR      47  24  40 S3        29.73F
6HR MIN TEMP:  24; 6HR MAX TEMP:  47;

$$

  *****  SOME WEATHER IN NEARBY STATES *****

CITY           SKY/WX    TMP DP  RH WIND       PRES   REMARKS
GLASGOW MT     LGT RAIN  37  33  85 NW18G25   29.63R
6HR MIN TEMP:  34; 6HR MAX TEMP:  42; 6HR PCP:  0.02;

GREAT FALLS MT FAIR      44  26  49 SW22      29.72R
6HR MIN TEMP:  41; 6HR MAX TEMP:  44;

CHEYENNE WY    FAIR      47  23  38 SW20G33   29.95S
6HR MIN TEMP:  35; 6HR MAX TEMP:  47;

SCOTTSBLUFF NE FAIR      53  26  35 W29G41    29.89F
6HR MIN TEMP:  19; 6HR MAX TEMP:  53;

OMAHA NE       FAIR      46  27  47 SW10      29.93F
6HR MIN TEMP:  25; 6HR MAX TEMP:  46;

DES MOINES IA  FAIR      44  34  67 SW21      29.90F
6HR MIN TEMP:  29; 6HR MAX TEMP:  44;

DAVENPORT IA   FAIR      42  34  73 W13       29.96F
6HR MIN TEMP:  33; 6HR MAX TEMP:  42;

CHICAGO IL     PTSUNNY   42  36  79 W14G26    29.89F
6HR MIN TEMP:  42; 6HR MAX TEMP:  43; 6HR PCP:  0.01;

EAU CLAIRE WI  CLOUDY    32  28  85 SW13      29.76F FOG     WCI  22
6HR MIN TEMP:  28; 6HR MAX TEMP:  32;

LA CROSSE WI   FAIR      34  28  79 S8        29.82F
6HR MIN TEMP:  31; 6HR MAX TEMP:  33;

$$

  *****  SOME NATIONAL WEATHER *****

CITY           SKY/WX    TMP DP  RH WIND       PRES   REMARKS
LA GUARDIA NY  PTSUNNY   42  35  76 NE5       30.01F



USA.gov is the U.S. government's official web portal to all federal, state and local government web resources and services.